Year,Month,Day,Hour,Minute,Value (Times are PST for temperature in C)
2015,03,28,00,00,9.10
2015,03,28,00,01,9.10
2015,03,28,00,02,9.00
2015,03,28,00,03,9.10
2015,03,28,00,04,9.10
2015,03,28,00,05,9.10
2015,03,28,00,06,9.10
2015,03,28,00,07,9.10
2015,03,28,00,08,9.10
2015,03,28,00,09,9.10
2015,03,28,00,10,9.10
2015,03,28,00,11,9.10
2015,03,28,00,12,9.10
2015,03,28,00,13,9.10
2015,03,28,00,14,9.10
2015,03,28,00,15,9.10
2015,03,28,00,16,9.10
2015,03,28,00,17,9.10
2015,03,28,00,18,9.10
2015,03,28,00,19,9.10
2015,03,28,00,20,9.00
2015,03,28,00,21,9.00
2015,03,28,00,22,9.00
2015,03,28,00,23,9.00
2015,03,28,00,24,9.00
2015,03,28,00,25,9.00
2015,03,28,00,26,9.00
2015,03,28,00,27,9.10
2015,03,28,00,28,9.10
2015,03,28,00,29,9.10
2015,03,28,00,30,9.10
2015,03,28,00,31,9.10
2015,03,28,00,32,9.10
2015,03,28,00,33,9.10
2015,03,28,00,34,9.10
2015,03,28,00,35,9.10
2015,03,28,00,36,9.10
2015,03,28,00,37,9.20
2015,03,28,00,38,9.20
2015,03,28,00,39,9.20
2015,03,28,00,40,9.20
2015,03,28,00,41,9.20
2015,03,28,00,42,9.20
2015,03,28,00,43,9.20
2015,03,28,00,44,9.20
2015,03,28,00,45,9.20
2015,03,28,00,46,9.20
2015,03,28,00,47,9.20
2015,03,28,00,48,9.20
2015,03,28,00,49,9.20
2015,03,28,00,50,9.20
2015,03,28,00,51,9.20
2015,03,28,00,52,9.20
2015,03,28,00,53,9.20
2015,03,28,00,54,9.20
2015,03,28,00,55,9.20
2015,03,28,00,56,9.20
2015,03,28,00,57,9.30
2015,03,28,00,58,9.30
2015,03,28,00,59,9.30
2015,03,28,01,00,9.30
2015,03,28,01,01,9.30
2015,03,28,01,02,9.30
2015,03,28,01,03,9.30
2015,03,28,01,04,9.30
2015,03,28,01,05,9.30
2015,03,28,01,06,9.30
2015,03,28,01,07,9.30
2015,03,28,01,08,9.30
2015,03,28,01,09,9.30
2015,03,28,01,10,9.30
2015,03,28,01,11,9.30
2015,03,28,01,12,9.30
2015,03,28,01,13,9.30
2015,03,28,01,14,9.30
2015,03,28,01,15,9.40
2015,03,28,01,16,9.40
2015,03,28,01,17,9.50
2015,03,28,01,18,9.50
2015,03,28,01,19,9.60
2015,03,28,01,20,9.70
2015,03,28,01,21,9.70
2015,03,28,01,22,9.80
2015,03,28,01,23,9.80
2015,03,28,01,24,9.80
2015,03,28,01,25,9.90
2015,03,28,01,26,9.90
2015,03,28,01,27,9.90
2015,03,28,01,28,9.90
2015,03,28,01,29,10.00
2015,03,28,01,30,10.00
2015,03,28,01,31,10.10
2015,03,28,01,32,10.10
2015,03,28,01,33,10.10
2015,03,28,01,34,10.10
2015,03,28,01,35,10.10
2015,03,28,01,36,10.10
2015,03,28,01,37,10.10
2015,03,28,01,38,10.10
2015,03,28,01,39,10.10
2015,03,28,01,40,10.00
2015,03,28,01,41,10.00
2015,03,28,01,42,9.90
2015,03,28,01,43,9.80
2015,03,28,01,44,9.80
2015,03,28,01,45,9.70
2015,03,28,01,46,9.70
2015,03,28,01,47,9.70
2015,03,28,01,48,9.60
2015,03,28,01,49,9.60
2015,03,28,01,50,9.60
2015,03,28,01,51,9.50
2015,03,28,01,52,9.50
2015,03,28,01,53,9.50
2015,03,28,01,54,9.40
2015,03,28,01,55,9.40
2015,03,28,01,56,9.40
2015,03,28,01,57,9.40
2015,03,28,01,58,9.30
2015,03,28,01,59,9.30
2015,03,28,02,00,9.30
2015,03,28,02,01,9.30
2015,03,28,02,02,9.30
2015,03,28,02,03,9.30
2015,03,28,02,04,9.30
2015,03,28,02,05,9.30
2015,03,28,02,06,9.20
2015,03,28,02,07,9.20
2015,03,28,02,08,9.20
2015,03,28,02,09,9.20
2015,03,28,02,10,9.20
2015,03,28,02,11,9.20
2015,03,28,02,12,9.20
2015,03,28,02,13,9.20
2015,03,28,02,14,9.20
2015,03,28,02,15,9.20
2015,03,28,02,16,9.20
2015,03,28,02,17,9.10
2015,03,28,02,18,9.10
2015,03,28,02,19,9.10
2015,03,28,02,20,9.10
2015,03,28,02,21,9.10
2015,03,28,02,22,9.10
2015,03,28,02,23,9.10
2015,03,28,02,24,9.10
2015,03,28,02,25,9.10
2015,03,28,02,26,9.10
2015,03,28,02,27,9.10
2015,03,28,02,28,9.10
2015,03,28,02,29,9.10
2015,03,28,02,30,9.10
2015,03,28,02,31,9.10
2015,03,28,02,32,9.10
2015,03,28,02,33,9.10
2015,03,28,02,34,9.10
2015,03,28,02,35,9.10
2015,03,28,02,36,9.10
2015,03,28,02,37,9.00
2015,03,28,02,38,9.10
2015,03,28,02,39,9.00
2015,03,28,02,40,9.00
2015,03,28,02,41,9.00
2015,03,28,02,42,9.00
2015,03,28,02,43,9.10
2015,03,28,02,44,9.10
2015,03,28,02,45,9.00
2015,03,28,02,46,9.00
2015,03,28,02,47,9.00
2015,03,28,02,48,9.00
2015,03,28,02,49,9.00
2015,03,28,02,50,9.00
2015,03,28,02,51,9.00
2015,03,28,02,52,9.00
2015,03,28,02,53,9.00
2015,03,28,02,54,9.00
2015,03,28,02,55,9.00
2015,03,28,02,56,9.00
2015,03,28,02,57,9.00
2015,03,28,02,58,9.00
2015,03,28,02,59,9.00
2015,03,28,03,00,9.00
2015,03,28,03,01,9.00
2015,03,28,03,02,8.90
2015,03,28,03,03,8.90
2015,03,28,04,02,8.60
2015,03,28,04,03,8.60
2015,03,28,04,04,8.60
2015,03,28,04,05,8.60
2015,03,28,04,06,8.60
2015,03,28,04,07,8.60
2015,03,28,04,08,8.60
2015,03,28,04,09,8.50
2015,03,28,04,10,8.50
2015,03,28,04,11,8.50
2015,03,28,04,12,8.40
2015,03,28,04,13,8.40
2015,03,28,04,14,8.40
2015,03,28,04,15,8.40
2015,03,28,04,16,8.40
2015,03,28,04,17,8.30
2015,03,28,04,18,8.30
2015,03,28,04,19,8.30
2015,03,28,04,20,8.30
2015,03,28,04,21,8.30
2015,03,28,04,22,8.30
2015,03,28,04,23,8.30
2015,03,28,04,24,8.30
2015,03,28,04,25,8.30
2015,03,28,04,26,8.30
2015,03,28,04,27,8.30
2015,03,28,04,28,8.30
2015,03,28,04,29,8.30
2015,03,28,04,30,8.30
2015,03,28,04,31,8.30
2015,03,28,04,32,8.30
2015,03,28,04,33,8.30
2015,03,28,04,34,8.20
2015,03,28,04,35,8.20
2015,03,28,04,36,8.20
2015,03,28,04,37,8.10
2015,03,28,04,38,8.10
2015,03,28,04,39,8.10
2015,03,28,04,40,8.10
2015,03,28,04,41,8.10
2015,03,28,04,42,8.00
2015,03,28,04,43,8.00
2015,03,28,04,44,7.90
2015,03,28,04,45,7.90
2015,03,28,04,46,7.90
2015,03,28,04,47,7.80
2015,03,28,04,48,7.80
2015,03,28,04,49,7.80
2015,03,28,04,50,7.70
2015,03,28,04,51,7.60
2015,03,28,04,52,7.60
2015,03,28,04,53,7.50
2015,03,28,04,54,7.50
2015,03,28,04,55,7.40
2015,03,28,04,56,7.40
2015,03,28,04,57,7.40
2015,03,28,04,58,7.40
2015,03,28,04,59,7.30
2015,03,28,05,00,7.30
2015,03,28,05,01,7.30
2015,03,28,05,02,7.30
2015,03,28,05,03,7.20
2015,03,28,05,04,7.20
2015,03,28,05,05,7.20
2015,03,28,05,06,7.10
2015,03,28,05,07,7.10
2015,03,28,05,08,7.10
2015,03,28,05,09,7.10
2015,03,28,05,10,7.10
2015,03,28,05,11,7.10
2015,03,28,05,12,7.10
2015,03,28,05,13,7.10
2015,03,28,05,14,7.10
2015,03,28,05,15,7.10
2015,03,28,05,16,7.20
2015,03,28,05,17,7.20
2015,03,28,05,18,7.30
2015,03,28,05,19,7.30
2015,03,28,05,20,7.40
2015,03,28,05,21,7.40
2015,03,28,05,22,7.50
2015,03,28,05,23,7.50
2015,03,28,05,24,7.60
2015,03,28,05,25,7.60
2015,03,28,05,26,7.70
2015,03,28,05,27,7.70
2015,03,28,05,28,7.70
2015,03,28,05,29,7.70
2015,03,28,05,30,7.70
2015,03,28,05,31,7.80
2015,03,28,05,32,7.80
2015,03,28,05,33,7.80
2015,03,28,05,34,7.90
2015,03,28,05,35,8.00
2015,03,28,05,36,8.10
2015,03,28,05,37,8.20
2015,03,28,05,38,8.30
2015,03,28,05,39,8.30
2015,03,28,05,40,8.40
2015,03,28,05,41,8.40
2015,03,28,05,42,8.50
2015,03,28,05,43,8.50
2015,03,28,05,44,8.60
2015,03,28,05,45,8.60
2015,03,28,05,46,8.60
2015,03,28,05,47,8.60
2015,03,28,05,48,8.60
2015,03,28,05,49,8.60
2015,03,28,05,50,8.50
2015,03,28,05,51,8.50
2015,03,28,05,52,8.50
2015,03,28,05,53,8.50
2015,03,28,05,54,8.40
2015,03,28,05,55,8.40
2015,03,28,05,56,8.40
2015,03,28,05,57,8.30
2015,03,28,05,58,8.30
2015,03,28,05,59,8.30
2015,03,28,06,00,8.20
2015,03,28,06,01,8.20
2015,03,28,06,02,8.10
2015,03,28,06,03,8.10
2015,03,28,06,04,8.00
2015,03,28,06,05,8.00
2015,03,28,06,06,8.00
2015,03,28,06,07,7.90
2015,03,28,06,08,7.90
2015,03,28,06,09,7.90
2015,03,28,06,10,7.80
2015,03,28,06,11,7.80
2015,03,28,06,12,7.80
2015,03,28,06,13,7.80
2015,03,28,06,14,7.80
2015,03,28,06,15,7.70
2015,03,28,06,16,7.70
2015,03,28,06,17,7.70
2015,03,28,06,18,7.70
2015,03,28,06,19,7.70
2015,03,28,06,20,7.70
2015,03,28,06,21,7.70
2015,03,28,06,22,7.60
2015,03,28,06,23,7.60
2015,03,28,06,24,7.60
2015,03,28,06,25,7.50
2015,03,28,06,26,7.50
2015,03,28,06,27,7.50
2015,03,28,06,28,7.50
2015,03,28,06,29,7.50
2015,03,28,06,30,7.50
2015,03,28,06,31,7.50
2015,03,28,06,32,7.40
2015,03,28,06,33,7.40
2015,03,28,06,34,7.40
2015,03,28,06,35,7.30
2015,03,28,06,36,7.30
2015,03,28,06,37,7.30
2015,03,28,06,38,7.20
2015,03,28,06,39,7.20
2015,03,28,06,40,7.20
2015,03,28,06,41,7.20
2015,03,28,06,42,7.20
2015,03,28,06,43,7.10
2015,03,28,06,44,7.10
2015,03,28,06,45,7.00
2015,03,28,06,46,7.00
2015,03,28,06,47,6.90
2015,03,28,06,48,6.90
2015,03,28,06,49,6.80
2015,03,28,06,50,6.80
2015,03,28,06,51,6.80
2015,03,28,06,52,6.70
2015,03,28,06,53,6.60
2015,03,28,06,54,6.60
2015,03,28,06,55,6.60
2015,03,28,06,56,6.50
2015,03,28,06,57,6.50
2015,03,28,06,58,6.50
2015,03,28,06,59,6.40
2015,03,28,07,00,6.40
2015,03,28,07,01,6.40
2015,03,28,07,02,6.40
2015,03,28,07,03,6.40
2015,03,28,07,04,6.40
2015,03,28,07,05,6.30
2015,03,28,07,06,6.30
2015,03,28,07,07,6.30
2015,03,28,07,08,6.30
2015,03,28,07,09,6.20
2015,03,28,07,10,6.20
2015,03,28,07,11,6.20
2015,03,28,07,12,6.20
2015,03,28,07,13,6.20
2015,03,28,07,14,6.20
2015,03,28,07,15,6.20
2015,03,28,07,16,6.20
2015,03,28,07,17,6.20
2015,03,28,07,18,6.20
2015,03,28,07,19,6.10
2015,03,28,07,20,6.10
2015,03,28,07,21,6.10
2015,03,28,07,22,6.00
2015,03,28,07,23,6.00
2015,03,28,07,24,6.00
2015,03,28,07,25,6.00
2015,03,28,07,26,6.00
2015,03,28,07,27,6.10
2015,03,28,07,28,6.10
2015,03,28,07,29,6.10
2015,03,28,07,30,6.10
2015,03,28,07,31,6.00
2015,03,28,07,32,5.90
2015,03,28,07,33,5.90
2015,03,28,07,34,5.90
2015,03,28,07,35,5.90
2015,03,28,07,36,5.90
2015,03,28,07,37,5.80
2015,03,28,07,38,5.90
2015,03,28,07,39,5.80
2015,03,28,07,40,5.90
2015,03,28,07,41,5.90
2015,03,28,07,42,5.90
2015,03,28,07,43,6.00
2015,03,28,07,44,6.10
2015,03,28,07,45,6.10
2015,03,28,07,46,6.20
2015,03,28,07,47,6.20
2015,03,28,07,48,6.30
2015,03,28,07,49,6.30
2015,03,28,07,50,6.30
2015,03,28,07,51,6.30
2015,03,28,07,52,6.30
2015,03,28,07,53,6.30
2015,03,28,07,54,6.30
2015,03,28,07,55,6.40
2015,03,28,07,56,6.40
2015,03,28,07,57,6.40
2015,03,28,07,58,6.50
2015,03,28,07,59,6.50
2015,03,28,08,00,6.50
2015,03,28,08,01,6.60
2015,03,28,08,02,6.60
2015,03,28,08,03,6.60
2015,03,28,08,04,6.70
2015,03,28,08,05,6.70
2015,03,28,08,06,6.80
2015,03,28,08,07,6.80
2015,03,28,08,08,6.80
2015,03,28,08,09,6.90
2015,03,28,08,10,6.90
2015,03,28,08,11,7.00
2015,03,28,08,12,7.00
2015,03,28,08,13,7.10
2015,03,28,08,14,7.10
2015,03,28,08,15,7.20
2015,03,28,08,16,7.20
2015,03,28,08,17,7.30
2015,03,28,08,18,7.30
2015,03,28,08,19,7.30
2015,03,28,08,20,7.30
2015,03,28,08,21,7.40
2015,03,28,08,22,7.40
2015,03,28,08,23,7.50
2015,03,28,08,24,7.50
2015,03,28,08,25,7.60
2015,03,28,08,26,7.60
2015,03,28,08,27,7.70
2015,03,28,08,28,7.70
2015,03,28,08,29,7.70
2015,03,28,08,30,7.80
2015,03,28,08,31,7.80
2015,03,28,08,32,7.90
2015,03,28,08,33,7.90
2015,03,28,08,34,8.00
2015,03,28,08,35,8.00
2015,03,28,08,36,8.00
2015,03,28,08,37,8.10
2015,03,28,08,38,8.10
2015,03,28,08,39,8.10
2015,03,28,08,40,8.20
2015,03,28,08,41,8.20
2015,03,28,08,42,8.30
2015,03,28,08,43,8.30
2015,03,28,08,44,8.40
2015,03,28,08,45,8.40
2015,03,28,08,46,8.50
2015,03,28,08,47,8.60
2015,03,28,08,48,8.70
2015,03,28,08,49,8.70
2015,03,28,08,50,8.80
2015,03,28,08,51,8.80
2015,03,28,08,52,8.90
2015,03,28,08,53,8.90
2015,03,28,08,54,9.00
2015,03,28,08,55,9.00
2015,03,28,08,56,9.10
2015,03,28,08,57,9.10
2015,03,28,08,58,9.20
2015,03,28,08,59,9.20
2015,03,28,09,00,9.20
2015,03,28,09,01,9.30
2015,03,28,09,02,9.40
2015,03,28,09,03,9.50
2015,03,28,09,04,9.60
2015,03,28,09,05,9.70
2015,03,28,09,06,9.90
2015,03,28,09,07,10.00
2015,03,28,09,08,10.00
2015,03,28,09,09,10.10
2015,03,28,09,10,10.10
2015,03,28,09,11,10.20
2015,03,28,09,12,10.20
2015,03,28,09,13,10.20
2015,03,28,09,14,10.20
2015,03,28,09,15,10.30
2015,03,28,09,16,10.30
2015,03,28,09,17,10.40
2015,03,28,09,18,10.40
2015,03,28,09,19,10.40
2015,03,28,09,20,10.50
2015,03,28,09,21,10.50
2015,03,28,09,22,10.50
2015,03,28,09,23,10.60
2015,03,28,09,24,10.60
2015,03,28,09,25,10.70
2015,03,28,09,26,10.70
2015,03,28,09,27,10.70
2015,03,28,09,28,10.80
2015,03,28,09,29,10.80
2015,03,28,09,30,10.90
2015,03,28,09,31,10.90
2015,03,28,09,32,11.00
2015,03,28,09,33,11.00
2015,03,28,09,34,11.00
2015,03,28,09,35,11.00
2015,03,28,09,36,10.90
2015,03,28,09,37,10.90
2015,03,28,09,38,11.00
2015,03,28,09,39,11.00
2015,03,28,09,40,11.00
2015,03,28,09,41,11.00
2015,03,28,09,42,11.10
2015,03,28,09,43,11.10
2015,03,28,09,44,11.00
2015,03,28,09,45,10.90
2015,03,28,09,46,10.80
2015,03,28,09,47,10.70
2015,03,28,09,48,10.60
2015,03,28,09,49,10.60
2015,03,28,09,50,10.60
2015,03,28,09,51,10.50
2015,03,28,09,52,10.40
2015,03,28,09,53,10.40
2015,03,28,09,54,10.40
2015,03,28,09,55,10.30
2015,03,28,09,56,10.30
2015,03,28,09,57,10.30
2015,03,28,09,58,10.30
2015,03,28,09,59,10.20
2015,03,28,10,00,10.20
2015,03,28,10,01,10.20
2015,03,28,10,02,10.20
2015,03,28,10,03,10.20
2015,03,28,10,04,10.20
2015,03,28,10,05,10.20
2015,03,28,10,06,10.20
2015,03,28,10,07,10.20
2015,03,28,10,08,10.20
2015,03,28,10,09,10.20
2015,03,28,10,10,10.20
2015,03,28,10,11,10.20
2015,03,28,10,12,10.20
2015,03,28,10,13,10.10
2015,03,28,10,14,10.10
2015,03,28,10,15,10.20
2015,03,28,10,16,10.20
2015,03,28,10,17,10.20
2015,03,28,10,18,10.10
2015,03,28,10,19,10.10
2015,03,28,10,20,10.10
2015,03,28,10,21,10.10
2015,03,28,10,22,10.00
2015,03,28,10,23,10.00
2015,03,28,10,24,10.00
2015,03,28,10,25,10.00
2015,03,28,10,26,10.00
2015,03,28,10,27,10.00
2015,03,28,10,28,9.90
2015,03,28,10,29,9.90
2015,03,28,10,30,9.90
2015,03,28,10,31,9.90
2015,03,28,10,32,9.90
2015,03,28,10,33,9.90
2015,03,28,10,34,9.90
2015,03,28,10,35,9.90
2015,03,28,10,36,9.90
2015,03,28,10,37,9.90
2015,03,28,10,38,9.90
2015,03,28,10,39,9.90
2015,03,28,10,40,9.90
2015,03,28,10,41,9.90
2015,03,28,10,42,9.90
2015,03,28,10,43,9.90
2015,03,28,10,44,9.90
2015,03,28,10,45,9.80
2015,03,28,10,46,9.80
2015,03,28,10,47,9.80
2015,03,28,10,48,9.80
2015,03,28,10,49,9.80
2015,03,28,10,50,9.80
2015,03,28,10,51,9.80
2015,03,28,10,52,9.80
2015,03,28,10,53,9.80
2015,03,28,10,54,9.80
2015,03,28,10,55,9.80
2015,03,28,10,56,9.80
2015,03,28,10,57,9.80
2015,03,28,10,58,9.70
2015,03,28,10,59,9.70
2015,03,28,11,00,9.70
2015,03,28,11,01,9.70
2015,03,28,11,02,9.70
2015,03,28,11,03,9.70
2015,03,28,11,04,9.70
2015,03,28,11,05,9.70
2015,03,28,11,06,9.70
2015,03,28,11,07,9.70
2015,03,28,11,08,9.70
2015,03,28,11,09,9.70
2015,03,28,11,10,9.70
2015,03,28,11,11,9.70
2015,03,28,11,12,9.70
2015,03,28,11,13,9.70
2015,03,28,11,14,9.70
2015,03,28,11,15,9.70
2015,03,28,11,16,9.80
2015,03,28,11,17,9.80
2015,03,28,11,18,9.70
2015,03,28,11,19,9.80
2015,03,28,11,20,9.80
2015,03,28,11,21,9.80
2015,03,28,11,22,9.80
2015,03,28,11,23,9.80
2015,03,28,11,24,9.80
2015,03,28,11,25,9.80
2015,03,28,11,26,9.80
2015,03,28,11,27,9.80
2015,03,28,11,28,9.80
2015,03,28,11,29,9.80
2015,03,28,11,30,9.80
2015,03,28,11,31,9.80
2015,03,28,11,32,9.80
2015,03,28,11,33,9.80
2015,03,28,11,34,9.80
2015,03,28,11,35,9.80
2015,03,28,11,36,9.80
2015,03,28,11,37,9.80
2015,03,28,11,38,9.80
2015,03,28,11,39,9.80
2015,03,28,11,40,9.80
2015,03,28,11,41,9.90
2015,03,28,11,42,9.90
2015,03,28,11,43,9.90
2015,03,28,11,44,9.90
2015,03,28,11,45,9.90
2015,03,28,11,46,10.00
2015,03,28,11,47,10.00
2015,03,28,11,48,10.00
2015,03,28,11,49,10.10
2015,03,28,11,50,10.10
2015,03,28,11,51,10.10
2015,03,28,11,52,10.10
2015,03,28,11,53,10.20
2015,03,28,11,54,10.20
2015,03,28,11,55,10.20
2015,03,28,11,56,10.20
2015,03,28,11,57,10.20
2015,03,28,11,58,10.20
2015,03,28,11,59,10.20
2015,03,28,12,00,10.20
2015,03,28,12,01,10.20
2015,03,28,12,02,10.20
2015,03,28,12,03,10.20
2015,03,28,12,04,10.20
2015,03,28,12,05,10.20
2015,03,28,12,06,10.20
2015,03,28,12,07,10.20
2015,03,28,12,08,10.20
2015,03,28,12,09,10.20
2015,03,28,12,10,10.20
2015,03,28,12,11,10.20
2015,03,28,12,12,10.20
2015,03,28,12,13,10.30
2015,03,28,12,14,10.30
2015,03,28,12,15,10.30
2015,03,28,12,16,10.30
2015,03,28,12,17,10.30
2015,03,28,12,18,10.30
2015,03,28,12,19,10.30
2015,03,28,12,20,10.40
2015,03,28,12,21,10.40
2015,03,28,12,22,10.40
2015,03,28,12,23,10.40
2015,03,28,12,24,10.40
2015,03,28,12,25,10.40
2015,03,28,12,26,10.40
2015,03,28,12,27,10.40
2015,03,28,12,28,10.40
2015,03,28,12,29,10.40
2015,03,28,12,30,10.40
2015,03,28,12,31,10.40
2015,03,28,12,32,10.40
2015,03,28,12,33,10.40
2015,03,28,12,34,10.40
2015,03,28,12,35,10.40
2015,03,28,12,36,10.40
2015,03,28,12,37,10.50
2015,03,28,12,38,10.50
2015,03,28,12,39,10.50
2015,03,28,12,40,10.60
2015,03,28,12,41,10.60
2015,03,28,12,42,10.60
2015,03,28,12,43,10.60
2015,03,28,12,44,10.60
2015,03,28,12,45,10.60
2015,03,28,12,46,10.60
2015,03,28,12,47,10.60
2015,03,28,12,48,10.60
2015,03,28,12,49,10.60
2015,03,28,12,50,10.50
2015,03,28,12,51,10.50
2015,03,28,12,52,10.50
2015,03,28,12,53,10.40
2015,03,28,12,54,10.40
2015,03,28,12,55,10.40
2015,03,28,12,56,10.40
2015,03,28,12,57,10.40
2015,03,28,12,58,10.50
2015,03,28,12,59,10.50
2015,03,28,13,00,10.50
2015,03,28,13,01,10.50
2015,03,28,13,02,10.40
2015,03,28,13,03,10.40
2015,03,28,13,04,10.40
2015,03,28,13,05,10.40
2015,03,28,13,06,10.40
2015,03,28,13,07,10.40
2015,03,28,13,08,10.40
2015,03,28,13,09,10.40
2015,03,28,13,10,10.40
2015,03,28,13,11,10.40
2015,03,28,13,12,10.40
2015,03,28,13,13,10.40
2015,03,28,13,14,10.40
2015,03,28,13,15,10.40
2015,03,28,13,16,10.40
2015,03,28,13,17,10.40
2015,03,28,13,18,10.40
2015,03,28,13,19,10.50
2015,03,28,13,20,10.50
2015,03,28,13,21,10.50
2015,03,28,13,22,10.60
2015,03,28,13,23,10.60
2015,03,28,13,24,10.60
2015,03,28,13,25,10.70
2015,03,28,13,26,10.70
2015,03,28,13,27,10.70
2015,03,28,13,28,10.70
2015,03,28,13,29,10.80
2015,03,28,13,30,10.70
2015,03,28,13,31,10.80
2015,03,28,13,32,10.80
2015,03,28,13,33,10.80
2015,03,28,13,34,10.80
2015,03,28,13,35,10.80
2015,03,28,13,36,10.80
2015,03,28,13,37,10.80
2015,03,28,13,38,10.80
2015,03,28,13,39,10.80
2015,03,28,13,40,10.80
2015,03,28,13,41,10.80
2015,03,28,13,42,10.80
2015,03,28,13,43,10.90
2015,03,28,13,44,10.90
2015,03,28,13,45,11.10
2015,03,28,13,46,11.20
2015,03,28,13,47,11.30
2015,03,28,13,48,11.40
2015,03,28,13,49,11.50
2015,03,28,13,50,11.60
2015,03,28,13,51,11.60
2015,03,28,13,52,11.60
2015,03,28,13,53,11.60
2015,03,28,13,54,11.60
2015,03,28,13,55,11.60
2015,03,28,13,56,11.60
2015,03,28,13,57,11.60
2015,03,28,13,58,11.60
2015,03,28,13,59,11.60
2015,03,28,14,00,11.50
2015,03,28,14,01,11.50
2015,03,28,14,02,11.60
2015,03,28,14,03,11.60
2015,03,28,14,04,11.60
2015,03,28,14,05,11.60
2015,03,28,14,06,11.70
2015,03,28,14,07,11.70
2015,03,28,14,08,11.70
2015,03,28,14,09,11.70
2015,03,28,14,10,11.70
2015,03,28,14,11,11.70
2015,03,28,14,12,11.70
2015,03,28,14,13,11.70
2015,03,28,14,14,11.60
2015,03,28,14,15,11.50
2015,03,28,14,16,11.40
2015,03,28,14,17,11.30
2015,03,28,14,18,11.20
2015,03,28,14,19,11.20
2015,03,28,14,20,11.20
2015,03,28,14,21,11.10
2015,03,28,14,22,11.10
2015,03,28,14,23,11.10
2015,03,28,14,24,11.10
2015,03,28,14,25,11.10
2015,03,28,14,26,11.10
2015,03,28,14,27,11.10
2015,03,28,14,28,11.20
2015,03,28,14,29,11.20
2015,03,28,14,30,11.20
2015,03,28,14,31,11.20
2015,03,28,14,32,11.20
2015,03,28,14,33,11.20
2015,03,28,14,34,11.20
2015,03,28,14,35,11.20
2015,03,28,14,36,11.20
2015,03,28,14,37,11.20
2015,03,28,14,38,11.20
2015,03,28,14,39,11.20
2015,03,28,14,40,11.20
2015,03,28,14,41,11.20
2015,03,28,14,42,11.20
2015,03,28,14,43,11.20
2015,03,28,14,44,11.20
2015,03,28,14,45,11.20
2015,03,28,14,46,11.20
2015,03,28,14,47,11.20
2015,03,28,14,48,11.20
2015,03,28,14,49,11.10
2015,03,28,14,50,11.10
2015,03,28,14,51,11.10
2015,03,28,14,52,11.10
2015,03,28,14,53,11.10
2015,03,28,14,54,11.10
2015,03,28,14,55,11.10
2015,03,28,14,56,11.20
2015,03,28,14,57,11.20
2015,03,28,14,58,11.20
2015,03,28,14,59,11.30
2015,03,28,15,00,11.40
2015,03,28,15,01,11.40
2015,03,28,15,02,11.50
2015,03,28,15,03,11.50
2015,03,28,15,04,11.50
2015,03,28,15,05,11.50
2015,03,28,15,06,11.50
2015,03,28,15,07,11.50
2015,03,28,15,08,11.60
2015,03,28,15,09,11.60
2015,03,28,15,10,11.60
2015,03,28,15,11,11.60
2015,03,28,15,12,11.60
2015,03,28,15,13,11.60
2015,03,28,15,14,11.60
2015,03,28,15,15,11.70
2015,03,28,15,16,11.70
2015,03,28,15,17,11.70
2015,03,28,15,18,11.70
2015,03,28,15,19,11.70
2015,03,28,15,20,11.70
2015,03,28,15,21,11.70
2015,03,28,15,22,11.60
2015,03,28,15,23,11.60
2015,03,28,15,24,11.60
2015,03,28,15,25,11.60
2015,03,28,15,26,11.50
2015,03,28,15,27,11.50
2015,03,28,15,28,11.50
2015,03,28,15,29,11.50
2015,03,28,15,30,11.40
2015,03,28,15,31,11.40
2015,03,28,15,32,11.40
2015,03,28,15,33,11.40
2015,03,28,15,34,11.40
2015,03,28,15,35,11.40
2015,03,28,15,36,11.40
2015,03,28,15,37,11.40
2015,03,28,15,38,11.40
2015,03,28,15,39,11.40
2015,03,28,15,40,11.30
2015,03,28,15,41,11.30
2015,03,28,15,42,11.30
2015,03,28,15,43,11.30
2015,03,28,15,44,11.30
2015,03,28,15,45,11.30
2015,03,28,15,46,11.20
2015,03,28,15,47,11.20
2015,03,28,15,48,11.30
2015,03,28,15,49,11.30
2015,03,28,15,50,11.30
2015,03,28,15,51,11.30
2015,03,28,15,52,11.30
2015,03,28,15,53,11.30
2015,03,28,15,54,11.30
2015,03,28,15,55,11.30
2015,03,28,15,56,11.30
2015,03,28,15,57,11.30
2015,03,28,15,58,11.30
2015,03,28,15,59,11.30
2015,03,28,16,00,11.20
2015,03,28,16,01,11.20
2015,03,28,16,02,11.20
2015,03,28,16,03,11.20
2015,03,28,16,04,11.10
2015,03,28,16,05,11.10
2015,03,28,16,06,11.10
2015,03,28,16,07,11.10
2015,03,28,16,08,11.10
2015,03,28,16,09,11.10
2015,03,28,16,10,11.00
2015,03,28,16,11,11.00
2015,03,28,16,12,11.00
2015,03,28,16,13,11.00
2015,03,28,16,14,11.00
2015,03,28,16,15,10.90
2015,03,28,16,16,10.90
2015,03,28,16,17,10.90
2015,03,28,16,18,10.90
2015,03,28,16,19,10.90
2015,03,28,16,20,10.90
2015,03,28,16,21,10.90
2015,03,28,16,22,10.80
2015,03,28,16,23,10.80
2015,03,28,16,24,10.80
2015,03,28,16,25,10.80
2015,03,28,16,26,10.80
2015,03,28,16,27,10.80
2015,03,28,16,28,10.80
2015,03,28,16,29,10.80
2015,03,28,16,30,10.80
2015,03,28,16,31,10.80
2015,03,28,16,32,10.80
2015,03,28,16,33,10.80
2015,03,28,16,34,10.80
2015,03,28,16,35,10.80
2015,03,28,16,36,10.80
2015,03,28,16,37,10.80
2015,03,28,16,38,10.80
2015,03,28,16,39,10.80
2015,03,28,16,40,10.80
2015,03,28,16,41,10.80
2015,03,28,16,42,10.80
2015,03,28,16,43,10.80
2015,03,28,16,44,10.80
2015,03,28,16,45,10.80
2015,03,28,16,46,10.80
2015,03,28,16,47,10.80
2015,03,28,16,48,10.80
2015,03,28,16,49,10.80
2015,03,28,16,50,10.80
2015,03,28,16,51,10.80
2015,03,28,16,52,10.80
2015,03,28,16,53,10.80
2015,03,28,16,54,10.80
2015,03,28,16,55,10.80
2015,03,28,16,56,10.80
2015,03,28,16,57,10.80
2015,03,28,16,58,10.80
2015,03,28,16,59,10.80
2015,03,28,17,00,10.80
2015,03,28,17,01,10.80
2015,03,28,17,02,10.80
2015,03,28,17,03,10.80
2015,03,28,17,04,10.80
2015,03,28,17,05,10.80
2015,03,28,17,06,10.80
2015,03,28,17,07,10.80
2015,03,28,17,08,10.80
2015,03,28,17,09,10.80
2015,03,28,17,10,10.90
2015,03,28,17,11,10.90
2015,03,28,17,12,10.90
2015,03,28,17,13,10.90
2015,03,28,17,14,10.90
2015,03,28,17,15,10.90
2015,03,28,17,16,10.90
2015,03,28,17,17,10.90
2015,03,28,17,18,11.00
2015,03,28,17,19,11.00
2015,03,28,17,20,11.00
2015,03,28,17,21,11.00
2015,03,28,17,22,11.10
2015,03,28,17,23,11.10
2015,03,28,17,24,11.00
2015,03,28,17,25,11.00
2015,03,28,17,26,11.00
2015,03,28,17,27,11.00
2015,03,28,17,28,11.00
2015,03,28,17,29,11.00
2015,03,28,17,30,11.00
2015,03,28,17,31,11.00
2015,03,28,17,32,11.00
2015,03,28,17,33,11.00
2015,03,28,17,34,11.00
2015,03,28,17,35,11.00
2015,03,28,17,36,11.00
2015,03,28,17,37,11.00
2015,03,28,17,38,11.00
2015,03,28,17,39,11.00
2015,03,28,17,40,11.00
2015,03,28,17,41,11.00
2015,03,28,17,42,11.00
2015,03,28,17,43,11.00
2015,03,28,17,44,11.00
2015,03,28,17,45,11.00
2015,03,28,17,46,11.00
2015,03,28,17,47,11.00
2015,03,28,17,48,11.00
2015,03,28,17,49,11.00
2015,03,28,17,50,11.00
2015,03,28,17,51,11.00
2015,03,28,17,52,10.90
2015,03,28,17,53,10.90
2015,03,28,17,54,10.90
2015,03,28,17,55,10.90
2015,03,28,17,56,10.90
2015,03,28,17,57,10.90
2015,03,28,17,58,10.90
2015,03,28,17,59,10.90
2015,03,28,18,00,10.80
2015,03,28,18,01,10.80
2015,03,28,18,02,10.80
2015,03,28,18,03,10.80
2015,03,28,18,04,10.80
2015,03,28,18,05,10.80
2015,03,28,18,06,10.80
2015,03,28,18,07,10.80
2015,03,28,18,08,10.70
2015,03,28,18,09,10.70
2015,03,28,18,10,10.70
2015,03,28,18,11,10.70
2015,03,28,18,12,10.70
2015,03,28,18,13,10.70
2015,03,28,18,14,10.70
2015,03,28,18,15,10.60
2015,03,28,18,16,10.60
2015,03,28,18,17,10.60
2015,03,28,18,18,10.60
2015,03,28,18,19,10.60
2015,03,28,18,20,10.60
2015,03,28,18,21,10.60
2015,03,28,18,22,10.50
2015,03,28,18,23,10.50
2015,03,28,18,24,10.50
2015,03,28,18,25,10.50
2015,03,28,18,26,10.40
2015,03,28,18,27,10.40
2015,03,28,18,28,10.40
2015,03,28,18,29,10.40
2015,03,28,18,30,10.40
2015,03,28,18,31,10.40
2015,03,28,18,32,10.40
2015,03,28,18,33,10.30
2015,03,28,18,34,10.30
2015,03,28,18,35,10.30
2015,03,28,18,36,10.30
2015,03,28,18,37,10.30
2015,03,28,18,38,10.30
2015,03,28,18,39,10.30
2015,03,28,18,40,10.30
2015,03,28,18,41,10.30